Flag for Germany Weather past 2 weeks in Hoyerswerda, Saxony, Germany

Now
38 °F

Overcast.


Feels Like: 36 °F
Forecast: 37 / 42 °F
Wind: 3 mph from Southwest

Location: Cottbus

Current Time: Mar 31, 2015 at 4:41:07 AM

Latest Report: Mar 31, 2015 at 4:00 AM


Visibility: 25 mi

Pressure: 29.63 "Hg

Humidity: 76%

Dew point: 32 °F

Location of HoyerswerdaLocation

Historic Weather in Hoyerswerda — Graph

°F

Hoyerswerda temperature yesterday

Maximum temperature yesterday: 51 °F (at 1:00 AM)
Minimum temperature yesterday: 40 °F (at 11:00 PM)
Average temperature yesterday: 45 °F

Past Weeks' High & Low Weather Summary

 TemperatureHumidityPressure
High65 °F (Mar 25, 4:00 PM)98% (Mar 25, 6:00 AM)30.48 "Hg (Mar 25, 6:00 AM)
Low23 °F (Mar 20, 6:00 AM)20% (Mar 18, 4:00 PM)29.12 "Hg (Mar 30, 1:00 AM)
Average44 °F68%30.02 "Hg
* Reported Mar 16 2:00 AM — Mar 31 3:00 AM, Hoyerswerda, Weather by CustomWeather, © 2015

Note: Actual official high and low records may vary slightly from our data, if they occured in-between our weather recording intervals... More about our weather records

Advertising

Hoyerswerda weather history for previous 24 hours

 ConditionsComfort  
Time TempWeatherWind HumidityBarometerVisibility
3:00 AM
Tue, Mar 31
38 °FOvercast.3 mph78%29.67 "Hg28 mi
2:00 AM38 °FOvercast.5 mph81%29.70 "Hg31 mi
1:00 AM38 °FPassing clouds.6 mph78%29.72 "Hg31 mi
12:00 AM40 °FOvercast.6 mph69%29.71 "Hg37 mi
11:00 PM
Mon, Mar 30
40 °FPassing clouds.8 mph68%29.68 "Hg34 mi
10:00 PM41 °FPassing clouds.8 mph71%29.65 "Hg37 mi
9:00 PM41 °FPassing clouds.6 mph73%29.63 "Hg43 mi
8:00 PM44 °FOvercast.7 mph67%29.58 "Hg43 mi
7:00 PM46 °FPartly sunny.8 mph62%29.53 "Hg28 mi
6:00 PM45 °FOvercast.7 mph68%29.47 "Hg40 mi
5:00 PM48 °FOvercast.9 mph57%29.44 "Hg43 mi
4:00 PM46 °FOvercast.8 mph67%29.41 "Hg40 mi
3:00 PM45 °FLight rain. Low clouds.8 mph74%29.38 "Hg25 mi
2:00 PM50 °FOvercast.8 mph55%29.35 "Hg25 mi
1:00 PM47 °FOvercast.10 mph58%29.32 "Hg22 mi
12:00 PM46 °FOvercast.8 mph60%29.32 "Hg28 mi
11:00 AM44 °FOvercast.9 mph70%29.29 "Hg37 mi
10:00 AM42 °FPartly sunny.8 mph78%29.26 "Hg37 mi
9:00 AM44 °FOvercast.7 mph78%29.26 "Hg25 mi
8:00 AM44 °FOvercast.9 mph79%29.23 "Hg25 mi
7:00 AM44 °FOvercast.8 mph75%29.23 "Hg43 mi
6:00 AM44 °FOvercast.8 mph74%29.23 "Hg43 mi
4:00 AM45 °FPassing clouds.8 mph77%29.21 "Hg43 mi
Weather by CustomWeather, © 2015

See weather overviewHow to use our weather pages